Regional Weather Roundup
Issued by NWS Charleston, SC

Current Version | Previous Version | Graphics & Text | Print | Product List | Glossary On
Versions: 1 2 3 4 5 6 7 8 9 10 11 12 13 14 15 16 17 18 19 20 21 22 23 24 25 26 27 28 29 30 31 32 33 34 35 36 37 38 39 40 41 42 43 44 45 46 47 48 49 50
000
ASUS42 KCHS 202112
RWRCHS

REGIONAL WEATHER ROUNDUP
NATIONAL WEATHER SERVICE CHARLESTON SC
400 PM EST MON NOV 20 2017

NOTE: "FAIR" INDICATES FEW OR NO CLOUDS BELOW 12,000 FEET WITH NO
SIGNIFICANT WEATHER AND/OR OBSTRUCTIONS TO VISIBILITY.

NOT ALL STATIONS ARE QUALITY CONTROLLED. USE DATA WITH CAUTION...
ESPECIALLY DEWPOINT OBSERVATIONS.

SCZ027-030-031-034>040-042>050-202200-
...SOUTHEAST SOUTH CAROLINA...

CITY           SKY/WX    TMP DP  RH WIND       PRES   REMARKS
N CHARLESTON   CLOUDY    59  32  36 NE6       30.22S
WATERFRONT PRK NOT AVBL
JOHNS ISLAND   FAIR      57  39  51 E8        30.23F
PINOPOLIS        N/A     57  37  47 VRB2      30.14S
MONCKS CORNER  FAIR      57  32  38 CALM      30.22F
SUMMERVILLE    FAIR      59  34  38 CALM      30.23S
BEAUFORT MCAS  MOSUNNY   59  40  49 E8        30.23R
BEAUFORT ARPT  FAIR      55  37  50 E7        30.22S HAZE
HILTON HEAD IS SUNNY     57  39  51 NE7       30.23S
WALTERBORO     PTCLDY    59  28  31 E3        30.23R
ALLENDALE      FAIR      61  32  33 CALM      30.20F

...SOUTHERN MIDLANDS AND PEE DEE...

CITY           SKY/WX    TMP DP  RH WIND       PRES   REMARKS
GEORGETOWN     FAIR      54  36  50 SE6       30.25R
KINGSTREE      FAIR      57  25  28 CALM      30.23S
ORANGEBURG     CLOUDY    58  30  34 SE5       30.22S
BARNWELL         N/A     61  32  33 E7        30.21F
AIKEN          FAIR      59  27  29 SE7       30.23F
MANNING        FAIR      55  37  50 MISG      30.23S
COLUMBIA       MOSUNNY   62  26  25 SE6       30.21S
SUMTER         SUNNY     60  24  25 SE5       30.20S
FLORENCE       SUNNY     60  22  23 E3        30.24R
MYRTLE BEACH   SUNNY     57  36  45 SE5       30.25R
N MYRTLE BEACH SUNNY     58  32  37 S3        30.23R

$$

GAZ063-065-086>088-099>101-113>116-118-119-134>141-150-202200-
...SOUTHEAST GEORGIA...

CITY           SKY/WX    TMP DP  RH WIND       PRES   REMARKS
SAVANNAH ARPT  PTSUNNY   60  44  55 SE9       30.22R
HUNTER AAF     MOSUNNY   59  45  58 NE7       30.19R
FORT STEWART   MOSUNNY   62  46  55 E8        30.19R
STATESBORO     MOSUNNY   61  28  28 CALM      30.21R
SYLVANIA       CLOUDY    61  35  37 SE3       30.22R
CLAXTON        FAIR      65  37  36 E3        30.20F

...CSRA...CENTRAL AND FAR SOUTHEAST GEORGIA...

CITY           SKY/WX    TMP DP  RH WIND       PRES   REMARKS
THOMSON        CLOUDY    58  29  33 S3        30.25S
AUGUSTA-BUSH   CLOUDY    61  27  27 VRB3      30.20S
AUGUSTA-DANIEL CLOUDY    60  28  29 S5        30.21S
SWAINSBORO     FAIR      61  32  33 NE6       30.20S
VIDALIA        SUNNY     63  37  39 E5        30.19S
EASTMAN        FAIR      64  11  12 SE8       30.20S
HAZLEHURST     FAIR      65  16  15 E6        30.17S
ALMA           SUNNY     67  47  48 NE5       30.16S
WAYCROSS       CLOUDY    69  48  47 E13       30.16S
JESUP          FAIR      66  46  48 E10       30.19R
BAXLEY         FAIR      63  41  45 E7        30.17S
BRUNSWICK      SUNNY     63  50  63 NE13G20   30.20R
SAINT SIMONS   SUNNY     65  52  62 NE13      30.18R

$$

SCZ027-028-034-036>038-045-046-048>050-GAZ119-141-202200-
...LAKE AND SUPPLEMENTAL COASTAL OBSERVATIONS...

STATION/POSITION TIME  TEMP    WIND        PRES    WAVE   SWELL
                       AIR SEA DIR/SP/G            HT/PER HT/PER/DIR
                 (UTC) (F)     (DEG/KT/KT) (MB)    (FT/S) (FT/S/D)
WINYAH BAY       1945   56     110/  5     1024.0
LAKE MURRAY      2020   60      CALM  /  1 1022.4F
ACE BASIN NERRS  1945   60      70/  2     1023.0
FORT PULASKI     2042   56 61   60/ 11/ 14 1023.7R
SAPELO ISLAND    2000   64      50/ 11     1022.0

$$

ANZ835-935-AMZ111-154-330-350-352-354-370-450-454-472-202200-
...C-MAN AND BUOY OBSERVATIONS...

STATION/POSITION TIME  TEMP    WIND        PRES    WAVE   SWELL
                       AIR SEA DIR/SP/G            HT/PER HT/PER/DIR
                 (UTC) (F)     (DEG/KT/KT) (MB)    (FT/S) (FT/S/D)
BUOY 41004       2050   60 73   50/ 12/ 17 1023.0F   4/ 5   2/180/10
BUOY 41008       2050   63 68   70/ 14/ 16 1022.1R   3/ 5   2/100/ 8
FOLLY BEACH CMAN 2000   56      80/ 10/ 12 1024.5S
CAPERS NEARSHORE 2008   54 62   80/ 10/ 14 1023.7S
FRIPP NEARSHORE  2008   56 62   50/ 14/ 19 1022.6F


STATION/POSITION TIME  TEMP    WIND        PRES    WAVE   SWELL
                       AIR SEA DIR/SP/G            HT/PER HT/PER/DIR
                 (UTC) (F)     (DEG/KT/KT) (MB)    (FT/S) (FT/S/D)
5E ST. MARYS GA  2030      67                N/A     4/ 6
FRYING PAN BUOY  2050   56 69   30/ 10/ 12 1023.8R   3/ 5   2/ 40/ 5
BUOY 41025       2050   53 66  350/ 10/ 14 1024.1R   3/ 7   3/ 40/ 7
CAPE LOOKOUT NC  2000           30/  4/  6 1023.8F
BUOY 41002       2050   67 77   40/ 14/ 19 1021.7R   6/ 8   5/ 8
BUOY 41010       NOT AVBL
ST AUGUSTINE FL  2100   70 68   90/ 13/ 15 1020.6F


$$




USA.gov is the U.S. government's official web portal to all federal, state and local government web resources and services.